カタログに戻る

ICEYE-X35

運用中科学SSO
NORAD 58302·PAYLOAD·🇫🇮 Finland

打ち上げ Nov 11, 2023 から Vandenberg Space Force Base

Loading…

次のパス (今後24時間)

TLE

最新Source: Space-Track

元期: Sep 14, 2026, 12:28 UTC

1 58302U 23174AY  26257.51979417  .00057799  00000-0  66816-3 0  9997
2 58302  97.3733 345.1133 0007403 221.5695 138.5000 15.61672461159243

AllMySatでICEYE-X35をリアルタイム追跡

Download on the App Store